Preview of NWS' New Version of Forecast
This preview is not operational and should not be used for support decisions.

Regional Weather Roundup (RWR)

Issued by Philadelphia/Mt Holly (PHI)

                            
000
ASUS41 KPHI 170611
RWRPHI

REGIONAL WEATHER ROUNDUP
NATIONAL WEATHER SERVICE MOUNT HOLLY NJ
100 AM EST THU JAN 17 2019

NOTE:  "FAIR" INDICATES FEW OR NO CLOUDS BELOW 12,000 FEET WITH NO
SIGNIFICANT WEATHER AND/OR OBSTRUCTIONS TO VISIBILITY.

 * = STATION DOES NOT REPORT PRECIPITATION (E.G. RAIN, SNOW, ETC.) 
        OR FOG.

NJZ015>026-170700-
SOUTHERN NEW JERSEY
  
CITY           SKY/WX    TMP DP  RH WIND       PRES   REMARKS
POMONA         FAIR      32  24  72 W9        30.27R WCI  24          
6HR MIN TEMP:  32; 6HR MAX TEMP:  37;                                

WILDWOOD*      CLOUDY    38  26  62 W8        30.29R WCI  32          
MILLVILLE      CLOUDY    33  25  72 W6        30.28R WCI  28          
WRIGHTSTOWN    FAIR      32  22  68 W5        30.23R WCI  27          
MOUNT HOLLY    FAIR      34  21  59 NW5       30.27R WCI  30          
TRENTON        FAIR      33  17  51 NW8       30.26R WCI  26          
6HR MIN TEMP:  31; 6HR MAX TEMP:  37;                                


$$
NJZ001>014-170700-
NORTHERN NEW JERSEY
  
CITY           SKY/WX    TMP DP  RH WIND       PRES   REMARKS
SUSSEX         FAIR      24   7  48 VRB3      30.28R                  
ANDOVER*         N/A     26  11  52 VRB7      30.27R WCI  18          
MORRISTOWN     FAIR      30  16  55 N12       30.27R WCI  21          
NEWARK         MOCLDY    31  14  49 N13       30.26R WCI  21          
TETERBORO      FAIR      30  13  49 N12       30.26R WCI  20          
CALDWELL       FAIR      29  12  49 NW5       30.28R WCI  24          
SOMERVILLE     FAIR      32  15  49 N8        30.25R WCI  25          
ALLAIRE*       FAIR      31  23  72 W6        30.26  WCI  25          
TOMS RIVER*    FAIR      28  23  81 W6        30.26R WCI  22          

$$
PAZ043-044-047-054-055-060>062-066>071-170700-
EASTERN PENNSYLVANIA
  
CITY           SKY/WX    TMP DP  RH WIND       PRES   REMARKS
PHILADELPHIA   MOCLDY    34  23  64 NW5       30.29R WCI  30          
6HR MIN TEMP:  33; 6HR MAX TEMP:  39;                                

NORTH PHILA    FAIR      35  20  54 NW8       30.29R WCI  29          
BLUE BELL*     FAIR      32  18  55 NW6       30.28R WCI  26          
DOYLESTOWN     FAIR      31  15  52 NW9       30.25R WCI  23          
QUAKERTOWN*    CLEAR     30  14  51 NW7G14    30.26  WCI  23          
PERKASIE*      FAIR      30  14  51 NW6       30.26R WCI  24          
POTTSTOWN      FAIR      31  15  52 NW12G18   30.28R WCI  22          
LANCASTER      CLOUDY    36  21  54 N7        30.26S WCI  30          
COATESVILLE    FAIR      32  21  64 N9        30.26R WCI  24          
READING        FAIR      31  19  61 N12       30.26S WCI  22          
6HR MIN TEMP:  31; 6HR MAX TEMP:  37;                                

ALLENTOWN      FAIR      28  13  53 NW9       30.27R WCI  19          
6HR MIN TEMP:  27; 6HR MAX TEMP:  38;                                

MOUNT POCONO   CLOUDY    18  11  74 NW13      30.18R WCI   5          
6HR MIN TEMP:  18; 6HR MAX TEMP:  29;                                

HAZLETON       FAIR      23  12  63 NW5       30.24R WCI  17          
LEHIGHTON      FAIR      28  14  54 CALM      30.28R                  
WILKES BARRE   FAIR      21   9  59 N13       30.27R WCI   9          

$$
DEZALL-MDZ008-012-015-019-020-170700-
DELAWARE AND EASTERN MARYLAND
  
CITY           SKY/WX    TMP DP  RH WIND       PRES   REMARKS
WILMINGTON     CLOUDY    35  25  66 W5        30.28S WCI  31          
6HR MIN TEMP:  34; 6HR MAX TEMP:  37;                                

DOVER          CLOUDY    45  19  36 W6        30.29R                  
GEORGETOWN     CLOUDY    38  25  59 CALM      30.30S                  
6HR MIN TEMP:  35; 6HR MAX TEMP:  41;                                

EASTON         CLOUDY    37  26  65 CALM      30.34S                  
PATUXENT       CLOUDY    37  29  72 N6        30.31  WCI  32          
OCEAN CITY     CLOUDY    32  27  81 NW5       30.31S WCI  27          
WALLOPS ISLAND CLOUDY    31  26  82 W3        30.31S                  
CAMBRIDGE      CLOUDY    32  30  93 CALM      30.31S                  
SALISBURY      CLOUDY    30  27  88 CALM      30.30S                  

$$
PAZ001-021-NYZ056-072-MDZ011-DCZ001-170700-
OTHER NEARBY LOCATIONS
  
CITY           SKY/WX    TMP DP  RH WIND       PRES   REMARKS
HARRISBURG     MOCLDY    35  18  49 N13       30.27S WCI  26          
STATE COLLEGE  FAIR      23  16  73 N5        30.26S WCI  17          
WILLIAMSPORT   FAIR      25  12  58 N7        30.30R WCI  17          
BINGHAMTON     FAIR      13   6  74 NW7       30.21S WCI   3          
NEW YORK CITY  FAIR      32  12  43 MISG      30.27R                  
BALTIMORE      MOCLDY    36  25  64 W5        30.29F WCI  32          
WASHINGTON DC  CLOUDY    39  22  50 NW7       30.32F WCI  34          

$$